Regional Weather Roundup
Issued by NWS

Home | Current Version | Previous Version | Graphics & Text | Print | Product List | Glossary Off
Versions: 1 2 3 4 5 6 7 8 9 10 11 12 13 14 15 16 17 18 19 20 21 22 23 24 25 26 27 28 29 30 31 32 33 34 35 36 37 38 39 40 41 42 43 44 45 46 47 48 49 50

000
ASUS45 KTFX 022310
RWRMT
MONTANA REGIONAL WEATHER ROUNDUP
NATIONAL WEATHER SERVICE GREAT FALLS MT
500 PM MDT TUE JUN 02 2015

NOTE: "FAIR" INDICATES FEW OR NO CLOUDS BELOW 12000 FEET WITH NO
SIGNIFICANT WEATHER AND/OR OBSTRUCTIONS TO VISIBILITY.

MTZ001>007-043-030000-
WEST OF THE DIVIDE

CITY           SKY/WX    TMP DP  RH WIND       PRES   REMARKS
KALISPELL      CLOUDY    59  50  72 CALM      29.95S
MISSOULA       PTSUNNY   61  50  67 S3        29.96S
BUTTE          CLOUDY    53  42  66 NE3       30.02F
MULLAN PASS    CLOUDY    42  41  96 VRB3      30.04R
DEER LODGE       N/A     59  45  58 E3        30.01F
HAMILTON         N/A     64  39  39 W9        29.96F
LIBBY            N/A     59  48  67 NW6       29.96S
PLAINS           N/A     63  48  57 NW13      29.98S
RONAN            N/A     59  50  72 E5        30.02S
$$

MTZ008-052>055-030000-
SOUTHWEST MONTANA

CITY           SKY/WX    TMP DP  RH WIND       PRES   REMARKS
BOZEMAN        CLOUDY    61  45  55 N17G23    29.93R
DILLON         PTSUNNY   63  43  48 NE16      29.91S
W YELLOWSTONE  PTSUNNY   63  37  39 SW13G26   30.02F
THREE FORKS      N/A     62  12  14 NE9       29.94R
TWIN BRIDGES     N/A     67  38  34 NW14      29.93R
$$

MTZ009-010-012-014-046-048-049-054-030000-
EAST SLOPES AND CENTRAL MONTANA

CITY           SKY/WX    TMP DP  RH WIND       PRES   REMARKS
CUT BANK       CLOUDY    53  47  79 E14       29.94S
GREAT FALLS    TSTM      57  51  80 NW12      29.90R
MALMSTROM AFB  SHOWER    56  52  85 NW8       29.92R
HELENA         PTSUNNY   65  44  46 VRB5      29.93S
CONRAD           N/A     56  56 100 NE8       29.96S
$$

MTZ011-013-016-021-045-047-050-051-030000-
NORTH CENTRAL MONTANA

CITY           SKY/WX    TMP DP  RH WIND       PRES   REMARKS
HAVRE          CLOUDY    59  46  62 E18       29.90F
LEWISTOWN      PTSUNNY   60  50  69 E20       29.90F
N BAR RANCH    CLOUDY    54  52  94 NE5       29.95F
CHINOOK          N/A     61  46  59 E8        29.92F
FORT BENTON      N/A     55  48  76 E6        29.91R
$$

MTZ017>020-022>027-061-062-030000-
NORTHEAST MONTANA

CITY           SKY/WX    TMP DP  RH WIND       PRES   REMARKS
GLASGOW        CLOUDY    61  51  70 NE8       29.90S
JORDAN           N/A     61  51  70 NE15      29.90F
SIDNEY         CLOUDY    57  54  88 NW24G31   29.80R
WOLF POINT     CLOUDY    62  54  74 NE8       29.89R
MALTA            N/A     62  48  60 N7        29.91R
PLENTYWOOD       N/A     55  54  94 NE17      29.87F
POPLAR           N/A     61  54  77 N13G21    29.88R
$$

MTZ028>42-056>058-030000-
SOUTHCENTRAL AND SOUTHEAST MONTANA

CITY           SKY/WX    TMP DP  RH WIND       PRES   REMARKS
BAKER          PTSUNNY   66  54  65 NW18G29   29.84F
BILLINGS       MOSUNNY   68  56  65 E13       29.87R
LIVINGSTON     CLOUDY    66  39  37 SW33G39   29.91R
MILES CITY     CLOUDY    62  54  74 N15       29.88R
BIG TIMBER       N/A     70  39  32 W21       29.88F
FORSYTH          N/A     64  54  68 N8G16     29.85F
LAUREL           N/A     70  55  58 NE9       29.86S
ROUNDUP          N/A     64  50  60 NE10      29.82F
$$

REGIONAL REPORTS...DAKOTAS

CITY           SKY/WX    TMP DP  RH WIND       PRES   REMARKS
WILLISTON      HVY RAIN  56  53  90 N21G30    29.81R FOG
MINOT          CLOUDY    61  57  87 NE14      29.76F
DICKINSON      PTSUNNY   71  56  58 W16G25    29.77R
BEACH          CLOUDY    59  55  88 W21G30    29.85R
CROSBY         RAIN      55  55 100 N14       29.87R
BISMARCK       MOSUNNY   73  65  75 E7        29.72R
GRAND FORKS    CLOUDY    69  60  73 E5        29.76F
FARGO          CLOUDY    78  62  57 S13       29.73F
BUFFALO SD       N/A     77  54  44 NW21G28   29.74S
RAPID CITY     TSTM      74  56  53 N13       29.81S
$$

REGIONAL REPORTS...WYOMING/IDAHO/WASHINGTON

CITY           SKY/WX    TMP DP  RH WIND       PRES   REMARKS
GILLETTE       SUNNY     77  49  37 N8        29.85F
SHERIDAN       PTSUNNY   73  53  49 CALM      29.86R
BUFFALO WY     CLOUDY    70  51  51 N7        29.91R
CODY           MOSUNNY   72  39  30 W12G23    29.90S
YELLOWSTONE LA   N/A     58  33  39 W10G17    30.10F
IDAHO FALLS    PTSUNNY   72  47  40 S18G32    29.96F
SALMON           N/A     64  45  48 N18G26    29.92F
BOISE          LGT RAIN  71  44  37 N8        29.96S
SPOKANE        PTSUNNY   66  43  43 SW15      29.92F
$$

REGIONAL REPORTS...ALBERTA

CITY           SKY/WX    TMP DP  RH WIND       PRES   REMARKS
CALGARY        CLOUDY    54  46  76 S14       29.96F
LETHBRIDGE     LGT RAIN  54  48  82 S16G22    29.95F
MEDICINE HAT   LGT RAIN  61  50  67 W8        29.94R
$$

REGIONAL REPORTS...SASKATCHEWAN

CITY           SKY/WX    TMP DP  RH WIND       PRES   REMARKS
SWIFT CURRENT  MOSUNNY   61  39  44 E13       29.95F
REGINA         CLOUDY    64  36  34 NE7G17    29.93F
SASKATOON      PTSUNNY   64  28  25 NE10      29.99F
$$



USA.gov is the U.S. government's official web portal to all federal, state and local government web resources and services.